EDT,Max TemperatureF,Mean TemperatureF,Min TemperatureF,Max Dew PointF,MeanDew PointF,Min DewpointF,Max Humidity, Mean Humidity, Min Humidity, Max Sea Level PressureIn, Mean Sea Level PressureIn, Min Sea Level PressureIn, Max VisibilityMiles, Mean VisibilityMiles, Min VisibilityMiles, Max Wind SpeedMPH, Mean Wind SpeedMPH, Max Gust SpeedMPH,PrecipitationIn, CloudCover, Events, WindDirDegrees
2011-10-1,71,61,51,46,42,34,82,52,25,29.98,29.93,29.86,10,10,10,16,7,25,0.00,0,,333
2011-10-2,71,56,42,43,40,37,87,59,31,30.10,30.05,30.00,10,10,10,9,3,,0.00,0,,323
2011-10-3,75,60,44,46,38,34,76,48,24,30.19,30.13,30.08,10,10,10,10,5,,0.00,0,,344
2011-10-4,80,63,46,46,43,37,87,56,26,30.24,30.19,30.15,10,10,10,7,1,,0.00,0,,43
2011-10-5,80,66,51,54,51,48,94,64,34,30.26,30.20,30.15,10,10,10,10,2,10,0.00,0,,60
2011-10-6,80,66,53,59,54,50,100,71,34,30.25,30.21,30.18,10,10,10,15,4,20,0.00,0,,48
2011-10-7,80,66,53,61,55,50,94,71,48,30.32,30.27,30.24,10,10,10,15,7,22,0.00,1,,52
2011-10-8,77,68,60,61,59,54,94,75,44,30.34,30.30,30.25,10,10,10,17,10,28,0.00,3,,55
2011-10-9,77,68,60,64,56,48,94,68,52,30.25,30.19,30.10,10,10,5,20,12,29,0.00,6,Rain,50
2011-10-10,68,66,64,66,64,63,100,93,88,30.06,29.95,29.87,10,8,4,18,14,30,0.00,8,Rain,47
2011-10-11,68,66,64,64,63,63,100,94,88,29.88,29.85,29.82,10,10,5,14,10,20,0.00,8,Rain,50
2011-10-12,71,66,62,68,64,63,100,95,83,29.85,29.82,29.78,10,5,0,5,1,,0.00,8,Fog-Thunderstorm,339
2011-10-13,80,71,62,64,62,57,100,81,45,29.81,29.76,29.65,10,8,0,15,5,21,0.00,6,Fog,237
2011-10-14,78,66,55,57,52,43,100,72,29,29.91,29.84,29.76,10,10,10,14,6,22,0.00,0,,276
2011-10-15,82,66,51,52,49,46,88,58,28,30.09,30.04,30.00,10,10,10,10,3,17,0.00,0,,277
2011-10-16,82,66,51,54,48,43,94,58,26,30.17,30.11,30.05,10,10,10,7,2,,0.00,0,,47
2011-10-17,84,68,51,61,54,50,100,72,35,30.07,30.01,29.91,10,10,10,9,2,,0.00,0,,223
2011-10-18,78,69,60,70,64,61,100,92,65,29.91,29.82,29.68,10,6,0,12,2,16,0.00,6,Fog-Rain,133
2011-10-19,69,60,50,70,59,41,100,86,59,29.72,29.52,29.44,10,9,4,16,6,28,0.00,7,Rain,253
2011-10-20,62,53,44,41,39,37,87,63,39,30.00,29.92,29.79,10,10,10,15,9,24,0.00,2,,257
2011-10-21,64,52,39,43,38,34,93,65,32,30.17,30.11,30.07,10,10,10,10,3,16,0.00,0,,289
2011-10-22,68,54,41,45,41,37,93,67,37,30.15,30.10,30.06,10,10,10,9,2,,0.00,0,,22
2011-10-23,69,56,42,46,43,41,100,73,38,30.14,30.09,30.04,10,10,10,9,2,,0.00,0,,62
2011-10-24,73,58,44,50,46,43,93,68,38,30.17,30.11,30.07,10,10,10,10,2,16,0.00,0,,336
2011-10-25,78,63,48,52,48,45,94,64,32,30.25,30.19,30.15,10,10,10,14,3,,0.00,0,,67
2011-10-26,78,64,50,59,52,48,100,74,36,30.19,30.11,30.00,10,9,0,10,2,,0.00,1,Fog,223
2011-10-27,78,68,59,61,57,52,94,74,41,30.01,29.95,29.89,10,10,10,12,1,,0.00,7,,240
2011-10-28,78,66,53,61,55,52,100,76,41,29.98,29.94,29.89,10,10,10,10,1,,0.00,2,,212
2011-10-29,62,56,50,63,49,41,100,75,48,30.05,29.96,29.85,10,8,1,17,6,24,0.00,4,,350
2011-10-30,62,48,35,37,33,30,93,63,30,30.30,30.23,30.16,10,10,10,20,6,25,0.00,0,,54
2011-10-31,68,57,46,54,45,37,82,68,56,30.25,30.18,30.12,10,10,10,14,7,17,0.00,6,,37